When you browse on this site, cookies collect data to enhance your experience and personalize the content and advertising you see.
Visit our Privacy Policy to learn more. By continuing to use the site, you agree to this use of cookies and data.
  • In Latvia
  • List of Countries
  • For 7 days
  • Water Temperature
  • Weather Map
  • Weather Widgets
  • user-avatar
    Login

    Hourly Weather Amar

    Today, 23 January, Thursday

    Time Temperature Precipitation Wind Pressure Humidity
    00:00 +20°C° 0 mm 4 mps 759 mmHg 74%
    01:00 +19°C° 0 mm 6 mps 759 mmHg 74%
    02:00 +18°C° 0 mm 8 mps 759 mmHg 73%
    03:00 +18°C° 0 mm 11 mps 759 mmHg 73%
    04:00 +17°C° 0 mm 11 mps 759 mmHg 73%
    05:00 +17°C° 0 mm 10 mps 760 mmHg 72%
    06:00 +16°C° 0 mm 10 mps 760 mmHg 72%
    07:00 +16°C° 0 mm 10 mps 761 mmHg 71%
    08:00 +14°C° 0 mm 10 mps 761 mmHg 70%
    09:00 +14°C° 0 mm 10 mps 762 mmHg 70%
    10:00 +15°C° 0 mm 9 mps 761 mmHg 71%
    11:00 +13°C° 0 mm 9 mps 761 mmHg 73%
    12:00 +13°C° 0 mm 9 mps 761 mmHg 74%
    13:00 +13°C° 0.2 mm 8 mps 761 mmHg 73%
    14:00 +13°C° 0.2 mm 8 mps 761 mmHg 71%
    15:00 +13°C° 0.2 mm 8 mps 761 mmHg 70%
    16:00 +14°C° 0.2 mm 6 mps 761 mmHg 68%
    17:00 +15°C° 0.2 mm 5 mps 761 mmHg 66%
    18:00 +15°C° 0.2 mm 4 mps 761 mmHg 64%
    19:00 +15°C° 0 mm 4 mps 762 mmHg 63%
    20:00 +17°C° 0 mm 4 mps 762 mmHg 62%
    21:00 +17°C° 0 mm 4 mps 762 mmHg 61%
    22:00 +16°C° 0 mm 5 mps 762 mmHg 61%
    23:00 +16°C° 0 mm 6 mps 762 mmHg 62%

    Tomorrow, 24 January, Friday

    Time Temperature Precipitation Wind Pressure Humidity
    00:00 +16°C° 0 mm 7 mps 762 mmHg 62%
    01:00 +16°C° 0 mm 7 mps 762 mmHg 61%
    02:00 +16°C° 0 mm 7 mps 761 mmHg 60%
    03:00 +16°C° 0 mm 7 mps 761 mmHg 58%
    04:00 +16°C° 0 mm 7 mps 761 mmHg 59%
    05:00 +15°C° 0 mm 7 mps 762 mmHg 59%
    06:00 +15°C° 0 mm 7 mps 762 mmHg 59%
    07:00 +15°C° 0 mm 6 mps 762 mmHg 59%
    08:00 +15°C° 0 mm 6 mps 763 mmHg 59%
    09:00 +15°C° 0 mm 6 mps 763 mmHg 59%
    10:00 +16°C° 0 mm 5 mps 763 mmHg 57%
    11:00 +16°C° 0 mm 5 mps 762 mmHg 55%
    12:00 +17°C° 0 mm 4 mps 762 mmHg 53%
    13:00 +17°C° 0 mm 4 mps 761 mmHg 51%
    14:00 +17°C° 0 mm 4 mps 761 mmHg 48%
    15:00 +17°C° 0 mm 3 mps 761 mmHg 46%
    16:00 +17°C° 0 mm 3 mps 761 mmHg 46%
    17:00 +17°C° 0 mm 2 mps 761 mmHg 46%
    18:00 +17°C° 0 mm 2 mps 761 mmHg 46%
    19:00 +17°C° 0 mm 2 mps 761 mmHg 46%
    20:00 +18°C° 0 mm 1 mps 762 mmHg 46%
    21:00 +18°C° 0 mm 1 mps 762 mmHg 46%
    22:00 +18°C° 0 mm 1 mps 762 mmHg 47%
    23:00 +18°C° 0 mm 1 mps 762 mmHg 47%

    Day after tomorrow, 25 January, Saturday

    Time Temperature Precipitation Wind Pressure Humidity
    00:00 +18°C° 0 mm 1 mps 762 mmHg 48%
    01:00 +16°C° 0 mm 1 mps 762 mmHg 48%
    02:00 +16°C° 0 mm 1 mps 761 mmHg 49%
    03:00 +16°C° 0 mm 2 mps 761 mmHg 49%
    04:00 +16°C° 0 mm 2 mps 761 mmHg 51%
    05:00 +17°C° 0 mm 3 mps 761 mmHg 52%
    06:00 +17°C° 0 mm 4 mps 761 mmHg 54%
    07:00 +17°C° 0 mm 4 mps 761 mmHg 54%
    08:00 +17°C° 0 mm 4 mps 761 mmHg 54%
    09:00 +17°C° 0 mm 4 mps 762 mmHg 54%
    10:00 +18°C° 0 mm 4 mps 761 mmHg 52%
    11:00 +18°C° 0 mm 4 mps 761 mmHg 50%
    12:00 +18°C° 0 mm 4 mps 760 mmHg 48%
    13:00 +19°C° 0 mm 5 mps 760 mmHg 48%
    14:00 +19°C° 0 mm 6 mps 760 mmHg 48%
    15:00 +18°C° 0 mm 7 mps 760 mmHg 48%
    16:00 +18°C° 0 mm 8 mps 760 mmHg 49%
    17:00 +17°C° 0 mm 9 mps 761 mmHg 50%
    18:00 +17°C° 0 mm 9 mps 761 mmHg 51%
    19:00 +17°C° 0 mm 10 mps 762 mmHg 48%
    20:00 +16°C° 0 mm 10 mps 762 mmHg 46%
    21:00 +16°C° 0 mm 10 mps 763 mmHg 44%
    22:00 +16°C° 0 mm 10 mps 763 mmHg 42%
    23:00 +14°C° 0 mm 10 mps 763 mmHg 40%

    26 January, Sunday

    Time Temperature Precipitation Wind Pressure Humidity
    00:00 +15°C° 0 mm 9 mps 763 mmHg 38%
    01:00 +14°C° 0 mm 10 mps 763 mmHg 42%
    02:00 +13°C° 0 mm 10 mps 763 mmHg 45%
    03:00 +13°C° 0 mm 10 mps 763 mmHg 48%
    04:00 +12°C° 0 mm 10 mps 763 mmHg 53%
    05:00 +12°C° 0 mm 11 mps 763 mmHg 58%
    06:00 +11°C° 0 mm 11 mps 764 mmHg 63%
    07:00 +11°C° 0 mm 11 mps 764 mmHg 66%
    08:00 +11°C° 0 mm 10 mps 765 mmHg 68%
    09:00 +11°C° 0 mm 10 mps 765 mmHg 70%
    10:00 +12°C° 0 mm 10 mps 765 mmHg 68%
    11:00 +12°C° 0 mm 10 mps 764 mmHg 67%
    12:00 +13°C° 0 mm 10 mps 764 mmHg 65%
    13:00 +13°C° 0 mm 10 mps 764 mmHg 65%
    14:00 +14°C° 0 mm 10 mps 763 mmHg 66%
    15:00 +16°C° 0 mm 10 mps 763 mmHg 66%
    16:00 +16°C° 0 mm 10 mps 763 mmHg 65%
    17:00 +14°C° 0 mm 10 mps 764 mmHg 63%
    18:00 +14°C° 0 mm 10 mps 764 mmHg 62%
    19:00 +14°C° 0 mm 10 mps 764 mmHg 63%
    20:00 +16°C° 0 mm 10 mps 764 mmHg 63%
    21:00 +16°C° 0 mm 10 mps 764 mmHg 64%
    22:00 +16°C° 0 mm 10 mps 764 mmHg 63%
    23:00 +16°C° 0 mm 10 mps 764 mmHg 62%

    27 January, Monday

    Time Temperature Precipitation Wind Pressure Humidity
    00:00 +16°C° 0 mm 10 mps 764 mmHg 61%
    01:00 +14°C° 0 mm 10 mps 764 mmHg 61%
    02:00 +14°C° 0 mm 11 mps 763 mmHg 61%
    03:00 +14°C° 0 mm 11 mps 763 mmHg 62%
    04:00 +14°C° 0 mm 11 mps 763 mmHg 63%
    05:00 +14°C° 0 mm 11 mps 764 mmHg 64%
    06:00 +13°C° 0 mm 11 mps 764 mmHg 65%
    07:00 +14°C° 0 mm 10 mps 764 mmHg 65%
    08:00 +14°C° 0 mm 10 mps 765 mmHg 64%
    09:00 +14°C° 0 mm 10 mps 765 mmHg 64%
    10:00 +14°C° 0 mm 10 mps 765 mmHg 62%
    11:00 +15°C° 0 mm 9 mps 764 mmHg 61%
    12:00 +15°C° 0 mm 9 mps 764 mmHg 59%
    13:00 +16°C° 0 mm 9 mps 764 mmHg 57%
    14:00 +16°C° 0 mm 9 mps 763 mmHg 55%
    15:00 +16°C° 0 mm 9 mps 763 mmHg 53%
    16:00 +16°C° 0 mm 9 mps 763 mmHg 54%
    17:00 +16°C° 0 mm 9 mps 763 mmHg 55%
    18:00 +16°C° 0 mm 9 mps 763 mmHg 55%
    19:00 +16°C° 0 mm 8 mps 763 mmHg 55%
    20:00 +16°C° 0 mm 8 mps 764 mmHg 54%
    21:00 +16°C° 0 mm 8 mps 764 mmHg 54%
    22:00 +16°C° 0 mm 8 mps 764 mmHg 55%
    23:00 +16°C° 0 mm 9 mps 764 mmHg 56%

    28 January, Tuesday

    Time Temperature Precipitation Wind Pressure Humidity
    00:00 +16°C° 0 mm 9 mps 763 mmHg 57%
    01:00 +16°C° 0 mm 9 mps 763 mmHg 58%
    02:00 +15°C° 0 mm 9 mps 763 mmHg 59%
    03:00 +15°C° 0 mm 9 mps 763 mmHg 60%
    04:00 +15°C° 0 mm 8 mps 763 mmHg 63%
    05:00 +15°C° 0 mm 8 mps 763 mmHg 66%
    06:00 +15°C° 0 mm 8 mps 763 mmHg 68%
    07:00 +15°C° 0 mm 7 mps 763 mmHg 68%
    08:00 +15°C° 0 mm 7 mps 764 mmHg 68%
    09:00 +16°C° 0 mm 7 mps 764 mmHg 69%
    10:00 +16°C° 0 mm 7 mps 764 mmHg 67%
    11:00 +16°C° 0 mm 7 mps 764 mmHg 66%
    12:00 +17°C° 0 mm 7 mps 764 mmHg 65%
    13:00 +17°C° 0 mm 6 mps 763 mmHg 64%
    14:00 +17°C° 0 mm 6 mps 763 mmHg 63%
    15:00 +17°C° 0 mm 6 mps 763 mmHg 62%
    16:00 +17°C° 0 mm 5 mps 763 mmHg 62%
    17:00 +17°C° 0 mm 5 mps 763 mmHg 62%
    18:00 +17°C° 0 mm 5 mps 763 mmHg 63%
    19:00 +17°C° 0 mm 5 mps 763 mmHg 62%
    20:00 +17°C° 0 mm 5 mps 764 mmHg 62%
    21:00 +16°C° 0 mm 5 mps 764 mmHg 62%
    22:00 +17°C° 0 mm 4 mps 764 mmHg 61%
    23:00 +17°C° 0 mm 4 mps 763 mmHg 60%
    Show more